SAS114 ENZV-EGNT

Flight info

Callsign SAS114
Flight time 1h 5m
Altitude 34000
Route LAPOT1G LAPOT DCT ALOTI DCT BEVAM DCT NATEB DCT
Aircraft B738/M-V/N

Departure

Time 2026-04-22 07:42
Airport Stavanger Airport, Sola (ENZV)

Arrival

Time 2026-04-22 08:48
Airport Newcastle International Airport (EGNT)
Time Latitude Longitude Altitude Speed Heading
2026-04-22 07:15 58.88074 5.62679 24 ft 0 kts 15°
2026-04-22 07:32 58.88057 5.62670 30 ft 4 kts 15°
2026-04-22 07:33 58.88033 5.62650 28 ft 4 kts 45°
2026-04-22 07:33 58.88022 5.62610 29 ft 4 kts 96°
2026-04-22 07:33 58.88024 5.62594 28 ft 1 kts 107°
2026-04-22 07:36 58.88022 5.62604 28 ft 4 kts 107°
2026-04-22 07:37 58.88005 5.62722 24 ft 14 kts 104°
2026-04-22 07:37 58.87990 5.62917 26 ft 15 kts 82°
2026-04-22 07:37 58.88030 5.63091 30 ft 15 kts 47°
2026-04-22 07:37 58.88109 5.63243 27 ft 17 kts 37°
2026-04-22 07:38 58.88214 5.63297 29 ft 12 kts 358°
2026-04-22 07:38 58.88278 5.63362 31 ft 12 kts 57°
2026-04-22 07:38 58.88349 5.63425 30 ft 12 kts 359°
2026-04-22 07:38 58.88442 5.63425 30 ft 16 kts 359°
2026-04-22 07:39 58.88570 5.63420 30 ft 21 kts
2026-04-22 07:39 58.88730 5.63415 31 ft 25 kts 358°
2026-04-22 07:39 58.88920 5.63410 28 ft 29 kts 359°
2026-04-22 07:39 58.89091 5.63406 25 ft 23 kts 358°
2026-04-22 07:40 58.89250 5.63400 24 ft 21 kts 358°
2026-04-22 07:40 58.89341 5.63467 19 ft 15 kts 62°
2026-04-22 07:40 58.89345 5.63530 17 ft 2 kts 88°
2026-04-22 07:40 58.89346 5.63566 17 ft 3 kts 86°
2026-04-22 07:41 58.89347 5.63588 17 ft 0 kts 86°
2026-04-22 07:41 58.89335 5.63684 18 ft 15 kts 124°
2026-04-22 07:41 58.89243 5.63738 19 ft 0 kts 182°
2026-04-22 07:42 58.89190 5.63740 20 ft 31 kts 179°
2026-04-22 07:42 58.88687 5.63754 27 ft 111 kts 178°
2026-04-22 07:42 58.87689 5.63770 61 ft 174 kts 181°
2026-04-22 07:42 58.86431 5.63766 734 ft 187 kts 180°
2026-04-22 07:43 58.85078 5.63788 1513 ft 203 kts 179°
2026-04-22 07:43 58.83605 5.63847 2124 ft 225 kts 179°
2026-04-22 07:43 58.81959 5.63763 2329 ft 248 kts 195°
2026-04-22 07:43 58.80502 5.62063 2804 ft 248 kts 237°
2026-04-22 07:44 58.79736 5.59060 3303 ft 256 kts 256°
2026-04-22 07:44 58.79150 5.55754 4021 ft 262 kts 257°
2026-04-22 07:44 58.78648 5.52372 4898 ft 262 kts 259°
2026-04-22 07:44 58.78192 5.48954 5713 ft 264 kts 259°
2026-04-22 07:45 58.77743 5.45543 6527 ft 266 kts 259°
2026-04-22 07:45 58.77281 5.42073 7301 ft 269 kts 258°
2026-04-22 07:45 58.76807 5.38559 8032 ft 272 kts 258°
2026-04-22 07:45 58.76325 5.35026 8826 ft 274 kts 258°
2026-04-22 07:46 58.75831 5.31442 9547 ft 278 kts 259°
2026-04-22 07:46 58.75331 5.27831 10330 ft 280 kts 258°
2026-04-22 07:46 58.74819 5.24150 10798 ft 293 kts 258°
2026-04-22 07:46 58.74270 5.20201 10962 ft 316 kts 257°
2026-04-22 07:47 58.73677 5.15974 11177 ft 336 kts 257°
2026-04-22 07:47 58.73057 5.11582 11759 ft 342 kts 257°
2026-04-22 07:47 58.72434 5.07204 12466 ft 344 kts 257°
2026-04-22 07:47 58.71800 5.02750 13165 ft 348 kts 256°
2026-04-22 07:48 58.71153 4.98217 13839 ft 353 kts 255°
2026-04-22 07:48 58.70495 4.93620 14514 ft 357 kts 255°
2026-04-22 07:48 58.69835 4.89021 15289 ft 357 kts 255°
2026-04-22 07:48 58.69174 4.84422 16068 ft 357 kts 255°
2026-04-22 07:49 58.68507 4.79797 16726 ft 361 kts 255°
2026-04-22 07:49 58.67830 4.75110 17357 ft 366 kts 255°
2026-04-22 07:49 58.67155 4.70453 18206 ft 364 kts 255°
2026-04-22 07:49 58.66472 4.65755 18915 ft 365 kts 255°
2026-04-22 07:50 58.65782 4.61010 19375 ft 373 kts 255°
2026-04-22 07:50 58.65075 4.56174 19834 ft 379 kts 255°
2026-04-22 07:50 58.64354 4.51267 20324 ft 384 kts 254°
2026-04-22 07:50 58.63328 4.46524 20847 ft 389 kts 239°
2026-04-22 07:51 58.61630 4.42454 21382 ft 394 kts 224°
2026-04-22 07:51 58.59427 4.39269 21824 ft 400 kts 212°
2026-04-22 07:51 58.57035 4.36479 22392 ft 402 kts 211°
2026-04-22 07:51 58.54635 4.33748 23066 ft 402 kts 210°
2026-04-22 07:52 58.52211 4.30997 23491 ft 408 kts 210°
2026-04-22 07:52 58.49790 4.28232 23876 ft 414 kts 210°
2026-04-22 07:52 58.47311 4.25381 24305 ft 417 kts 210°
2026-04-22 07:52 58.44820 4.22504 24739 ft 419 kts 210°
2026-04-22 07:53 58.42309 4.19595 25132 ft 422 kts 210°
2026-04-22 07:53 58.39784 4.16668 25530 ft 426 kts 210°
2026-04-22 07:53 58.37244 4.13727 25960 ft 427 kts 210°
2026-04-22 07:53 58.34695 4.10780 26358 ft 430 kts 210°
2026-04-22 07:54 58.32155 4.07847 26687 ft 434 kts 209°
2026-04-22 07:54 58.29561 4.04858 27013 ft 438 kts 209°
2026-04-22 07:54 58.26944 4.01848 27394 ft 440 kts 210°
2026-04-22 07:54 58.24319 3.98834 27754 ft 443 kts 209°
2026-04-22 07:55 58.21662 3.95790 28019 ft 447 kts 209°
2026-04-22 07:55 58.18990 3.92733 28397 ft 449 kts 209°
2026-04-22 07:55 58.16312 3.89674 28774 ft 451 kts 209°
2026-04-22 07:55 58.13614 3.86598 29045 ft 455 kts 209°
2026-04-22 07:56 58.10888 3.83496 29407 ft 456 kts 209°
2026-04-22 07:56 58.08163 3.80401 29757 ft 458 kts 209°
2026-04-22 07:56 58.05421 3.77291 29988 ft 462 kts 209°
2026-04-22 07:56 58.02653 3.74158 30303 ft 464 kts 209°
2026-04-22 07:57 57.99914 3.71062 30600 ft 466 kts 208°
2026-04-22 07:57 57.97088 3.67873 30816 ft 468 kts 208°
2026-04-22 07:57 57.94299 3.64732 31320 ft 462 kts 208°
2026-04-22 07:57 57.91598 3.61677 32054 ft 454 kts 210°
2026-04-22 07:58 57.89029 3.58215 32286 ft 459 kts 218°
2026-04-22 07:58 57.86601 3.54239 32398 ft 464 kts 220°
2026-04-22 07:58 57.84200 3.50166 32702 ft 464 kts 220°
2026-04-22 07:58 57.81817 3.46093 33121 ft 461 kts 220°
2026-04-22 07:59 57.79468 3.42101 33484 ft 460 kts 220°
2026-04-22 07:59 57.77085 3.38090 33752 ft 461 kts 219°
2026-04-22 07:59 57.74689 3.34098 34005 ft 461 kts 219°
2026-04-22 07:59 57.72287 3.30122 34319 ft 461 kts 219°
2026-04-22 08:00 57.69880 3.26158 34517 ft 463 kts 219°
2026-04-22 08:00 57.67444 3.22163 34493 ft 466 kts 219°
2026-04-22 08:00 57.62568 3.14186 34482 ft 462 kts 219°
2026-04-22 08:01 57.57758 3.06342 34503 ft 457 kts 219°
2026-04-22 08:01 57.52998 2.98607 34513 ft 456 kts 218°
2026-04-22 08:02 57.48213 2.90861 34507 ft 455 kts 218°
2026-04-22 08:02 57.43432 2.83147 34486 ft 451 kts 218°
2026-04-22 08:03 57.38726 2.75578 34479 ft 446 kts 218°
2026-04-22 08:03 57.34030 2.68057 34503 ft 446 kts 218°
2026-04-22 08:04 57.29358 2.60601 34510 ft 446 kts 218°
2026-04-22 08:04 57.24652 2.53115 34502 ft 446 kts 218°
2026-04-22 08:05 57.19940 2.45646 34501 ft 446 kts 218°
2026-04-22 08:05 57.15228 2.38202 34502 ft 446 kts 218°
2026-04-22 08:06 57.10546 2.30831 34523 ft 445 kts 218°
2026-04-22 08:06 57.05839 2.23445 34519 ft 444 kts 218°
2026-04-22 08:07 57.01132 2.16087 34507 ft 442 kts 218°
2026-04-22 08:07 56.96444 2.08781 34518 ft 441 kts 218°
2026-04-22 08:08 56.91806 2.01580 34523 ft 439 kts 217°
2026-04-22 08:08 56.87146 1.94368 34522 ft 438 kts 217°
2026-04-22 08:09 56.82489 1.87187 34533 ft 437 kts 217°
2026-04-22 08:09 56.77860 1.80072 34522 ft 437 kts 217°
2026-04-22 08:10 56.73203 1.72937 34546 ft 437 kts 217°
2026-04-22 08:10 56.68544 1.65824 34527 ft 437 kts 217°
2026-04-22 08:11 56.63882 1.58729 34524 ft 436 kts 217°
2026-04-22 08:11 56.59216 1.51652 34525 ft 435 kts 217°
2026-04-22 08:12 56.54595 1.44666 34533 ft 435 kts 217°
2026-04-22 08:12 56.49941 1.37653 34527 ft 434 kts 217°
2026-04-22 08:13 56.45293 1.30674 34528 ft 433 kts 217°
2026-04-22 08:13 56.40649 1.23722 34525 ft 433 kts 217°
2026-04-22 08:14 56.36035 1.16839 34525 ft 433 kts 217°
2026-04-22 08:14 56.31386 1.09926 34538 ft 433 kts 217°
2026-04-22 08:15 56.26733 1.03027 34527 ft 432 kts 217°
2026-04-22 08:15 56.22115 0.96205 34528 ft 432 kts 217°
2026-04-22 08:16 56.17466 0.89358 34530 ft 431 kts 217°
2026-04-22 08:16 56.12825 0.82545 34531 ft 430 kts 216°
2026-04-22 08:17 56.08187 0.75758 34530 ft 430 kts 216°
2026-04-22 08:17 56.03578 0.69034 34528 ft 430 kts 216°
2026-04-22 08:18 55.98938 0.62288 34529 ft 430 kts 216°
2026-04-22 08:18 55.94298 0.55563 34543 ft 430 kts 217°
2026-04-22 08:19 55.89643 0.48838 34533 ft 431 kts 217°
2026-04-22 08:19 55.84973 0.42112 34534 ft 432 kts 217°
2026-04-22 08:20 55.80274 0.35362 34139 ft 437 kts 217°
2026-04-22 08:20 55.77928 0.31999 33753 ft 430 kts 216°
2026-04-22 08:20 55.75612 0.28685 33369 ft 424 kts 217°
2026-04-22 08:21 55.73446 0.25150 32932 ft 422 kts 225°
2026-04-22 08:21 55.71633 0.21096 32625 ft 418 kts 234°
2026-04-22 08:21 55.70135 0.16770 32249 ft 415 kts 235°
2026-04-22 08:21 55.68661 0.12401 31832 ft 411 kts 235°
2026-04-22 08:22 55.67198 0.08060 31429 ft 408 kts 235°
2026-04-22 08:22 55.65744 0.03766 31031 ft 404 kts 234°
2026-04-22 08:22 55.64298 -0.00474 30650 ft 401 kts 234°
2026-04-22 08:22 55.62852 -0.04687 30208 ft 397 kts 234°
2026-04-22 08:23 55.61420 -0.08837 29779 ft 393 kts 234°
2026-04-22 08:23 55.59999 -0.12943 29376 ft 388 kts 234°
2026-04-22 08:23 55.58609 -0.16947 28981 ft 384 kts 234°
2026-04-22 08:23 55.57217 -0.20951 28567 ft 380 kts 234°
2026-04-22 08:24 55.55837 -0.24911 28191 ft 376 kts 234°
2026-04-22 08:24 55.54469 -0.28830 27782 ft 373 kts 234°
2026-04-22 08:24 55.53571 -0.31401 27535 ft 370 kts 234°
2026-04-22 08:24 55.52222 -0.35255 27137 ft 367 kts 234°
2026-04-22 08:25 55.50884 -0.39073 26756 ft 365 kts 234°
2026-04-22 08:25 55.49550 -0.42872 26378 ft 362 kts 234°
2026-04-22 08:25 55.48228 -0.46633 26009 ft 359 kts 234°
2026-04-22 08:25 55.46911 -0.50372 25634 ft 357 kts 234°
2026-04-22 08:26 55.45605 -0.54077 25264 ft 355 kts 234°
2026-04-22 08:26 55.44306 -0.57755 24901 ft 353 kts 234°
2026-04-22 08:26 55.43027 -0.61372 24540 ft 351 kts 234°
2026-04-22 08:26 55.41740 -0.65006 24182 ft 349 kts 234°
2026-04-22 08:27 55.40458 -0.68619 23767 ft 347 kts 234°
2026-04-22 08:27 55.39181 -0.72215 23361 ft 345 kts 234°
2026-04-22 08:27 55.37912 -0.75783 23001 ft 342 kts 234°
2026-04-22 08:27 55.36652 -0.79321 22626 ft 340 kts 234°
2026-04-22 08:28 55.35404 -0.82821 22269 ft 337 kts 234°
2026-04-22 08:28 55.34158 -0.86307 21910 ft 336 kts 234°
2026-04-22 08:28 55.32911 -0.89791 21556 ft 336 kts 234°
2026-04-22 08:28 55.31657 -0.93287 21206 ft 341 kts 234°
2026-04-22 08:29 55.30391 -0.96809 20856 ft 349 kts 234°
2026-04-22 08:29 55.29091 -1.00424 20478 ft 350 kts 234°
2026-04-22 08:29 55.27797 -1.04023 20101 ft 347 kts 234°
2026-04-22 08:29 55.26511 -1.07596 19733 ft 345 kts 234°
2026-04-22 08:30 55.25228 -1.11154 19380 ft 343 kts 235°
2026-04-22 08:30 55.23954 -1.14681 19011 ft 341 kts 235°
2026-04-22 08:30 55.22685 -1.18189 18610 ft 340 kts 235°
2026-04-22 08:30 55.21438 -1.21631 18215 ft 338 kts 234°
2026-04-22 08:31 55.20182 -1.25090 17849 ft 336 kts 235°
2026-04-22 08:31 55.18933 -1.28527 17475 ft 333 kts 235°
2026-04-22 08:31 55.16460 -1.35320 16771 ft 329 kts 235°
2026-04-22 08:32 55.15233 -1.38682 16418 ft 327 kts 234°
2026-04-22 08:32 55.14012 -1.42023 16072 ft 325 kts 234°
2026-04-22 08:32 55.12799 -1.45337 15730 ft 323 kts 234°
2026-04-22 08:32 55.11590 -1.48639 15386 ft 322 kts 235°
2026-04-22 08:33 55.10384 -1.51924 15047 ft 320 kts 234°
2026-04-22 08:33 55.09180 -1.55205 14705 ft 319 kts 234°
2026-04-22 08:33 55.07982 -1.58463 14365 ft 318 kts 235°
2026-04-22 08:33 55.06787 -1.61708 13989 ft 317 kts 234°
2026-04-22 08:34 55.05595 -1.64938 13636 ft 316 kts 234°
2026-04-22 08:34 55.04208 -1.67841 13265 ft 309 kts 214°
2026-04-22 08:34 55.02318 -1.69448 12960 ft 300 kts 192°
2026-04-22 08:34 55.00295 -1.69827 12610 ft 295 kts 178°
2026-04-22 08:35 54.98246 -1.69792 12267 ft 294 kts 176°
2026-04-22 08:35 54.96205 -1.69714 11925 ft 293 kts 176°
2026-04-22 08:35 54.94171 -1.69637 11580 ft 292 kts 176°
2026-04-22 08:35 54.92130 -1.69569 11190 ft 293 kts 176°
2026-04-22 08:36 54.90097 -1.69511 10951 ft 289 kts 177°
2026-04-22 08:36 54.88114 -1.69462 10810 ft 281 kts 176°
2026-04-22 08:36 54.86189 -1.69418 10669 ft 270 kts 177°
2026-04-22 08:36 54.84356 -1.69377 10556 ft 257 kts 176°
2026-04-22 08:37 54.82595 -1.69339 10386 ft 251 kts 176°
2026-04-22 08:37 54.80872 -1.69300 10165 ft 250 kts 176°
2026-04-22 08:37 54.79130 -1.69260 9900 ft 249 kts 176°
2026-04-22 08:37 54.77428 -1.69225 9851 ft 241 kts 176°
2026-04-22 08:38 54.75771 -1.69190 9724 ft 235 kts 176°
2026-04-22 08:38 54.74166 -1.69448 9610 ft 233 kts 197°
2026-04-22 08:38 54.72852 -1.71078 9519 ft 240 kts 228°
2026-04-22 08:38 54.72142 -1.73774 9134 ft 256 kts 260°
2026-04-22 08:39 54.72394 -1.76802 8770 ft 258 kts 295°
2026-04-22 08:39 54.73253 -1.79487 8391 ft 253 kts 301°
2026-04-22 08:39 54.74130 -1.82100 7989 ft 248 kts 300°
2026-04-22 08:39 54.74975 -1.84657 7607 ft 242 kts 300°
2026-04-22 08:40 54.75795 -1.87165 7237 ft 237 kts 300°
2026-04-22 08:40 54.76598 -1.89635 6805 ft 234 kts 299°
2026-04-22 08:40 54.77488 -1.91986 6171 ft 237 kts 319°
2026-04-22 08:40 54.78860 -1.93288 5923 ft 217 kts 345°
2026-04-22 08:41 54.80254 -1.94187 5758 ft 211 kts 344°
2026-04-22 08:41 54.81625 -1.95087 5711 ft 209 kts 344°
2026-04-22 08:41 54.83011 -1.95993 5535 ft 222 kts 344°
2026-04-22 08:41 54.84562 -1.96533 4858 ft 225 kts 11°
2026-04-22 08:42 54.86040 -1.96172 4614 ft 209 kts 13°
2026-04-22 08:42 54.87438 -1.95862 4401 ft 196 kts 13°
2026-04-22 08:42 54.88769 -1.95577 4194 ft 189 kts 13°
2026-04-22 08:42 54.90035 -1.95309 4008 ft 182 kts 13°
2026-04-22 08:43 54.91273 -1.95050 3825 ft 175 kts 13°
2026-04-22 08:43 54.92462 -1.94803 3648 ft 169 kts 13°
2026-04-22 08:43 54.93603 -1.94567 3515 ft 161 kts 13°
2026-04-22 08:43 54.94708 -1.94338 3381 ft 156 kts 12°
2026-04-22 08:44 54.95762 -1.94120 3274 ft 153 kts 13°
2026-04-22 08:44 54.96736 -1.93483 3088 ft 147 kts 47°
2026-04-22 08:44 54.97373 -1.92078 2943 ft 150 kts 57°
2026-04-22 08:44 54.97916 -1.90579 2752 ft 144 kts 59°
2026-04-22 08:45 54.98420 -1.89099 2578 ft 141 kts 62°
2026-04-22 08:45 54.98859 -1.87580 2387 ft 140 kts 64°
2026-04-22 08:45 54.99271 -1.86044 2221 ft 139 kts 64°
2026-04-22 08:45 54.99674 -1.84524 2028 ft 137 kts 65°
2026-04-22 08:46 55.00070 -1.83026 1864 ft 138 kts 65°
2026-04-22 08:46 55.00475 -1.81496 1679 ft 138 kts 64°
2026-04-22 08:46 55.00876 -1.79975 1500 ft 138 kts 65°
2026-04-22 08:46 55.01279 -1.78453 1307 ft 136 kts 65°
2026-04-22 08:47 55.01671 -1.76969 1118 ft 133 kts 65°
2026-04-22 08:47 55.02054 -1.75527 965 ft 135 kts 65°
2026-04-22 08:47 55.02459 -1.73996 778 ft 142 kts 66°
2026-04-22 08:47 55.02889 -1.72462 576 ft 141 kts 64°
2026-04-22 08:48 55.03278 -1.70893 333 ft 139 kts 64°
2026-04-22 08:48 55.03672 -1.69464 261 ft 110 kts 65°
2026-04-22 08:48 55.03899 -1.68587 253 ft 40 kts 65°
2026-04-22 08:48 55.04025 -1.68320 249 ft 28 kts 36°
2026-04-22 08:49 55.04141 -1.68240 243 ft 6 kts 304°
2026-04-22 08:49 55.04141 -1.68246 243 ft 0 kts 271°
2026-04-22 08:50 55.04143 -1.68259 243 ft 5 kts 284°
2026-04-22 08:50 55.04135 -1.68371 244 ft 14 kts 244°
2026-04-22 08:50 55.04084 -1.68569 248 ft 22 kts 246°
2026-04-22 08:50 55.04017 -1.68816 252 ft 22 kts 243°
2026-04-22 08:51 55.03955 -1.69056 253 ft 21 kts 242°
2026-04-22 08:51 55.03892 -1.69289 252 ft 21 kts 246°
2026-04-22 08:51 55.03834 -1.69517 257 ft 20 kts 250°
2026-04-22 08:51 55.03794 -1.69746 261 ft 20 kts 256°
2026-04-22 08:52 55.03775 -1.69978 261 ft 19 kts 265°
2026-04-22 08:52 55.03776 -1.70207 262 ft 19 kts 274°
2026-04-22 08:52 55.03790 -1.70426 263 ft 18 kts 282°
2026-04-22 08:52 55.03802 -1.70587 265 ft 9 kts 275°
2026-04-22 08:53 55.03769 -1.70663 265 ft 9 kts 195°
2026-04-22 08:53 55.03740 -1.70668 265 ft 0 kts 181°
2026-04-22 08:53 55.03739 -1.70668 265 ft 0 kts 181°